THOR ABLESTAR DEB, 19293

Orbit data source: Space-Track

THOR ABLESTAR DEB, 19293 is space debris in LEO originally from a launch on Thu, 29 Jun 1961 UTC launched from the Air Force Eastern Test Range (AFETR). Debris objects in space refer to the collection of defunct objects orbiting the Earth. Examples of debris include non-operational satellites, rocket bodies, and fragments generated from explosions, collisions, or faulty payload assembly.

Loading next visibility...
Identifier
19293, 1961-015MA
Orbit
LEO
Country
Flag of USUS
Related business
Manufacturer
Unknown
Mission
Spacecraft
Bus & Motor
Unknown
Mass
Unknown
Launch date (UTC)
1961-06-29 (64 years ago)
Launch vehicle
Unknown
Launch site
Air Force Eastern Test Range (AFETR)
Object type
Payload
Rocket body
Debris
Shape & HBR
Unknown shape, 0.1 m
Radar Cross Section
Small (<0.1 m²)

Expand to show TLE details & history
Last TLE update: 6 days ago

TLE from 6 days ago
0 THOR ABLESTAR DEB
1 19293U 61015MA  25341.34553637  .00000051  00000-0  23348-3 0  9997
2 19293  66.9885 298.4208 0338418 320.9447 195.6620 13.12631500802558
Epoch: 2025-12-07T08:17Z
TLE epoch observation values (Epoch: 2025-12-07T08:17:34.342Z)
Latitude
22.37345°
Longitude
-92.35134°
Altitude
1,462.824 km
Speed
7.016 km/s
True Right ascension
07h 13m 36s
True Declination
22° 15' 49"
Sunlit
Object was in full shadow at epoch
Visualization orbit readout
Latitude
Unknown
Longitude
Unknown
Altitude
Unknown
Speed
Unknown
Apparent Right ascension
Unknown
Apparent Declination
Unknown
Sunlit
N/A
Visualization observer readout
Local Sidereal Time
05:08:02
Azimuth
Unknown
Elevation
Unknown
Doppler factor
Unknown
Orbital elements
Apogee altitude
1,468.272 km
Perigee altitude
954.583 km
Semi-major axis
7,589.565 km
Eccentricity
0.03384
Inclination
66.9885°
RAAN
298.4208°
Arg. of periapsis
320.9447°
True anomaly
194.65618°
Mean anomaly
195.662°
Eccentric anomaly
195.15508°
Mean motion
3.2826 °/min
Orbital period
109.67 mins
BSTAR
0.00023348
Loading maneuver chart data...
Computing Atmospheric mass density...
Loading historical data...
Loading historical data...
Loading historical data...
Loading historical data...
Loading historical data...
Loading historical data...
Loading historical data...

Documentation

Showing up to 5 results
|